Back to catalog

SL-14 R/B

AlivePO
NORAD 12988·ROCKET BODY·🇷🇺 Russia

Launched Dec 3, 1981 from Plesetsk Cosmodrome

Loading…

Next Passes (next 24 hours)

TLE

FreshSource: Space-Track

Epoch: Sep 14, 2026, 15:46 UTC

1 12988U 81117B   26257.65725666  .00000281  00000-0  28272-4 0  9997
2 12988  82.5247 142.4237 0016598 194.4972 165.5771 14.87405795400002

Track SL-14 R/B in real time with AllMySat

Download on the App Store